Vertical_Velocity
2 -1 0 -1 -2 -2 2 0 -1 -1 -1 1 1 1 1 1 2 -1 0 -1 -1 -1 -1 -2 -2 -2 -1 1 -0 -0 -0 -2 -1 -0 -0 -1 -1 -1 -1 0 0 1 1 2 2 2 0
-3 1 0 2 -1 3 2 2 -2 -4 1 -2 2 -1 -0 1 1 1 1 -1 -1 -2 -1 -1 -1 -2 -1 2 -0 -1 0 -1 -1 -0 -0 -0 0 -1 -2 -1 -1 2 -1 1 1 2 2
0 -0 -3 3 1 0 1 -1 -2 2 -3 -1 -1 -2 -1 -2 -1 3 1 0 -1 -2 -2 -2 -2 -1 -1 -4 -2 -1 -2 1 0 -0 -1 1 0 1 2 -1 -0 -0 1 2 4 4 4
-0 2 0 -1 1 -3 0 -2 -0 -5 -0 -1 -2 -1 -5 -1 -2 -2 -0 -1 -1 -1 -2 -2 -3 -1 -2 -2 -2 -1 -1 0 0 -0 -1 2 2 1 1 -1 -0 -2 3 3 3 0 -3
0 -0 2 -1 0 -1 0 -3 -1 0 0 -2 0 -5 -0 -3 -1 -0 -3 -2 -1 0 -2 -2 -3 -1 -1 -2 -3 -1 -2 0 -1 1 1 3 4 2 1 -2 -2 3 6 3 1 -3 -1
-0 -2 1 0 -3 -2 -6 0 -2 -1 1 -2 -1 -3 -0 -1 -1 -3 -3 -1 -1 -1 -1 -1 -2 -0 -0 -0 -3 -1 -1 -0 -2 -1 -0 -1 -1 3 4 2 2 -4 -2 -1 2 4 -1
1 -1 -3 -3 -0 -0 -1 -1 -1 -2 -3 -2 -4 -3 -2 -2 -1 -3 -4 -0 -2 -0 -2 -1 -1 -1 2 -1 -1 1 -2 -0 1 -0 -2 2 3 2 -2 -0 2 0 -3 -4 10 -0 -0
-1 1 -1 -3 0 -2 1 1 0 -1 -1 -2 -2 -1 -8 -1 1 -3 -4 -3 -0 -2 -1 -1 -2 -2 0 -2 -1 -2 -2 -0 -1 -1 -2 1 4 -1 1 -1 -1 1 2 3 0 3 -3
-1 -2 -2 -1 -3 -2 -1 1 1 -2 -2 -0 2 -3 -1 -1 1 0 -8 1 -3 -2 -1 -7 -0 -1 1 -1 -2 -2 -3 -1 -2 -1 -0 1 -3 -0 -2 1 2 -1 1 -0 -2 -1 -0
-4 -2 -1 -1 -1 -3 -2 -2 -1 -1 1 0 1 -6 3 -5 -1 3 -9 5 -5 0 -3 1 -8 -2 -1 2 1 -2 -0 -1 -1 -0 -1 0 -3 1 -0 4 -1 1 -2 -3 -1 0 1
-1 -2 -3 -2 -2 -1 -1 -3 -3 -1 -0 -1 1 -0 -1 -4 2 -3 1 -4 -2 -1 -9 -3 -4 -3 1 -1 1 1 -1 -2 2 -2 0 -6 -2 1 0 -0 1 -2 -2 -1 2 1 2
-5 -4 -4 -3 -2 -2 -2 -2 -2 -1 -0 1 1 -0 -2 1 -2 1 -1 -2 -1 -6 -0 -1 -6 -2 -1 1 -0 -1 -1 -0 1 -3 3 -3 1 -1 1 -1 -2 -1 1 -0 0 -1 -3
-3 -3 -5 -6 -3 -2 -1 -2 -1 -0 1 -0 -1 0 1 8 -9 -2 -0 -2 -8 -5 -0 -0 -3 -0 2 -3 -2 1 -1 0 -1 1 -2 -0 -5 -1 0 2 -0 2 3 -3 -3 -2 -2
-4 -4 -3 -4 -4 -3 -2 -1 -0 -1 -1 -0 -3 4 6 -4 2 -2 -1 -4 -6 4 -2 0 -1 -2 -0 2 -2 -1 0 0 1 0 0 -0 -2 -0 -0 -0 -4 -1 1 2 -4 -1 5
-3 -2 -3 -2 -4 -2 -3 -3 -1 -0 -1 1 1 1 9 -12 3 -1 -3 -9 10 4 -1 -1 -2 1 3 -4 2 3 -0 -2 1 -1 -1 -1 -0 2 1 -2 0 3 0 1 -3 2 1
-3 -3 -2 -3 -5 -2 -3 -3 -3 -2 -0 2 -0 7 -1 -5 1 -1 -8 2 5 -2 -1 -0 1 3 -3 -2 4 0 -1 1 -0 -1 -1 1 -2 4 -1 -2 1 2 1 0 1 -5 -1
-1 -1 -2 -3 -3 -2 -2 -3 -4 -4 2 -0 3 5 -6 2 -1 -4 -7 1 9 -2 0 2 1 2 -2 0 4 -1 4 -0 1 1 -1 1 4 1 1 3 3 1 0 -1 0 3 -3
-0 -1 -2 -3 -3 -1 -1 -4 -3 -1 -1 6 1 0 -1 5 -4 -5 4 7 4 0 0 1 2 3 0 1 3 -2 1 -3 2 -2 -0 5 -2 -1 -0 2 1 -0 0 -1 -3 -2 -2
-1 -2 -2 -2 -2 -1 -2 -2 0 0 1 4 1 -3 4 0 -3 2 8 7 0 1 -0 1 3 1 2 -2 -0 -0 0 -1 -1 -0 0 4 4 -1 1 -0 0 2 -2 -3 -3 -3 -5
-2 -2 -1 -1 -1 -2 -1 -2 0 -0 1 2 3 -2 1 -1 1 5 1 5 2 0 1 4 2 2 1 -4 3 1 -2 -3 -1 2 2 -0 0 3 -1 1 -1 -2 -2 -4 -4 -3 -4
-1 -1 -0 -1 -2 -1 -2 -2 -2 -1 -1 2 1 -2 3 1 3 4 2 3 3 -1 3 1 2 2 1 -3 2 -1 -4 -0 -0 1 0 1 1 -0 -2 -0 1 -3 -2 -2 -3 -3 -2
-0 0 -1 -1 -2 -2 -2 -3 -3 -1 -1 2 1 -0 2 5 3 7 1 7 5 -1 4 5 3 2 2 -0 -1 -0 -1 -0 0 1 3 -0 -0 0 -2 -1 -2 -2 -2 -6 -4 -3 -4
-0 -0 -1 -1 -2 -1 -3 -3 -2 0 1 -0 1 3 2 -0 -0 7 4 1 -0 2 8 5 -1 -0 3 -1 0 -0 -0 -1 1 2 1 1 2 -2 0 -0 -0 -2 -4 -6 -3 -0 -1
0 -0 -0 -1 -2 -1 -2 -1 0 2 2 1 4 1 4 -1 5 7 6 5 3 -1 6 2 1 2 4 -0 1 -0 -0 0 0 1 -0 1 1 -2 1 -2 -1 -1 -2 -4 -1 1 -2
-0 -0 -0 -1 -1 -1 -1 -1 2 1 4 2 2 1 2 2 3 3 6 3 -2 5 1 7 4 1 -1 1 2 -0 1 1 2 1 1 1 -2 -0 -2 -2 1 -0 0 -3 -1 3 4
-0 -1 -0 -0 -1 -0 0 -0 3 1 4 2 2 4 3 4 3 5 6 1 -0 3 2 2 -1 3 3 1 2 1 1 2 2 1 0 1 -3 1 -3 0 -0 2 0 -0 -1 1 1
-0 -1 0 -0 -1 0 1 0 3 1 2 1 4 2 -1 7 1 2 1 0 1 4 4 3 1 3 0 2 1 -1 1 2 1 1 -0 -1 1 -0 -1 2 1 5 1 1 0 1 1
-0 -0 0 1 -1 1 1 1 3 1 1 2 5 1 -1 1 6 -1 2 1 1 3 3 6 0 2 2 1 0 2 2 1 1 1 -1 -1 2 -1 -1 4 2 3 2 4 -0 1 2
-1 0 1 1 -2 1 1 1 2 1 1 1 0 -2 3 -8 2 -2 2 1 -2 2 6 3 5 1 1 1 4 3 2 1 0 -3 -2 -0 -0 0 3 3 4 2 -0 -0 2 1 3
Height
5779 5782 5783 5786 5788 5789 5792 5795 5797 5798 5799 5801 5802 5803 5805 5805 5806 5806 5808 5808 5808 5807 5806 5805 5804 5804 5805 5807 5808 5808 5807 5807 5808 5808 5808 5808 5807 5807 5806 5805 5804 5805 5805 5806 5804 5804 5803
5772 5775 5776 5780 5783 5784 5787 5791 5793 5794 5795 5797 5799 5800 5801 5801 5803 5802 5803 5803 5803 5802 5801 5800 5799 5799 5799 5800 5801 5800 5800 5799 5801 5801 5802 5802 5803 5801 5800 5799 5798 5799 5799 5799 5798 5798 5798
5765 5768 5771 5773 5776 5778 5781 5785 5787 5788 5791 5793 5796 5797 5797 5798 5799 5798 5800 5800 5799 5799 5797 5796 5794 5793 5794 5793 5792 5793 5793 5793 5793 5794 5794 5795 5796 5797 5796 5794 5793 5793 5794 5793 5794 5793 5793
5758 5761 5764 5766 5769 5772 5774 5777 5781 5782 5785 5788 5791 5792 5793 5794 5796 5796 5796 5796 5796 5795 5794 5793 5791 5791 5790 5788 5787 5787 5786 5786 5786 5786 5786 5788 5790 5790 5790 5788 5788 5789 5790 5789 5789 5788 5786
5748 5751 5754 5758 5760 5764 5766 5769 5772 5775 5778 5782 5784 5786 5789 5789 5790 5792 5793 5793 5792 5791 5791 5790 5789 5788 5787 5785 5783 5783 5782 5781 5780 5780 5780 5781 5782 5783 5783 5782 5782 5785 5785 5784 5783 5781 5779
5736 5740 5744 5746 5751 5754 5759 5761 5765 5768 5772 5775 5778 5781 5783 5785 5785 5787 5788 5788 5788 5789 5788 5787 5786 5787 5785 5783 5780 5779 5777 5776 5776 5775 5775 5774 5776 5778 5777 5776 5778 5776 5775 5776 5778 5777 5774
5725 5728 5732 5736 5740 5744 5749 5752 5756 5759 5762 5767 5770 5775 5776 5779 5779 5782 5784 5784 5786 5787 5785 5784 5783 5783 5782 5780 5778 5776 5774 5773 5772 5771 5770 5771 5773 5772 5771 5772 5772 5771 5772 5772 5774 5770 5769
5714 5716 5719 5723 5726 5731 5736 5741 5746 5750 5753 5756 5761 5766 5769 5772 5773 5775 5778 5778 5780 5782 5782 5781 5780 5779 5779 5777 5775 5772 5771 5770 5768 5767 5766 5767 5767 5766 5768 5768 5768 5766 5767 5769 5768 5765 5762
5702 5704 5707 5711 5715 5719 5723 5728 5733 5738 5742 5746 5751 5755 5761 5763 5765 5769 5771 5774 5775 5776 5777 5776 5777 5776 5776 5775 5771 5770 5768 5766 5765 5764 5763 5763 5763 5764 5764 5765 5764 5764 5763 5763 5761 5759 5758
5692 5694 5696 5698 5702 5706 5711 5716 5721 5726 5731 5735 5740 5745 5750 5754 5759 5761 5765 5767 5769 5771 5772 5773 5773 5773 5773 5772 5769 5767 5765 5765 5763 5763 5763 5761 5762 5762 5762 5762 5760 5760 5760 5759 5757 5754 5752
5680 5682 5685 5687 5690 5694 5699 5703 5708 5714 5719 5724 5729 5735 5740 5744 5748 5753 5758 5761 5764 5766 5766 5769 5768 5769 5769 5769 5767 5764 5763 5762 5762 5762 5762 5760 5759 5760 5759 5759 5756 5756 5754 5752 5751 5748 5744
5668 5671 5674 5677 5680 5683 5687 5692 5697 5702 5708 5713 5719 5724 5729 5735 5738 5744 5749 5754 5759 5761 5761 5763 5764 5764 5765 5764 5764 5761 5760 5761 5760 5760 5760 5758 5758 5756 5756 5754 5753 5750 5748 5745 5743 5740 5736
5658 5659 5661 5664 5668 5672 5676 5680 5685 5691 5697 5702 5708 5714 5720 5725 5730 5735 5741 5746 5751 5752 5758 5758 5760 5761 5761 5760 5760 5759 5758 5758 5758 5758 5757 5756 5755 5753 5752 5750 5748 5746 5743 5739 5734 5732 5731
5647 5648 5649 5651 5655 5659 5663 5668 5673 5679 5686 5692 5698 5704 5710 5714 5721 5726 5732 5738 5742 5748 5750 5753 5755 5757 5757 5758 5757 5757 5755 5755 5755 5754 5753 5752 5751 5749 5747 5745 5743 5741 5738 5735 5726 5725 5723
5636 5638 5639 5640 5643 5646 5650 5655 5661 5667 5674 5681 5688 5694 5699 5704 5711 5716 5723 5728 5737 5741 5744 5748 5750 5752 5753 5754 5754 5754 5752 5752 5751 5749 5749 5747 5746 5744 5742 5739 5738 5734 5731 5727 5721 5717 5712
5626 5628 5629 5631 5633 5636 5639 5643 5648 5655 5662 5670 5677 5683 5687 5695 5700 5707 5714 5722 5729 5733 5738 5742 5744 5747 5749 5749 5751 5751 5749 5749 5747 5746 5744 5743 5742 5739 5736 5733 5730 5725 5722 5718 5713 5706 5700
5616 5618 5619 5620 5623 5625 5628 5632 5637 5643 5650 5658 5665 5670 5677 5685 5692 5698 5706 5715 5723 5726 5731 5736 5739 5742 5744 5745 5746 5746 5746 5745 5743 5742 5740 5738 5737 5735 5730 5727 5722 5718 5712 5708 5705 5701 5694
5607 5608 5609 5611 5613 5615 5618 5622 5626 5632 5639 5646 5653 5659 5667 5675 5684 5691 5700 5709 5714 5718 5724 5729 5733 5736 5739 5741 5741 5742 5742 5740 5739 5738 5737 5734 5730 5727 5724 5719 5715 5712 5707 5705 5701 5697 5690
5599 5600 5601 5602 5604 5606 5609 5612 5616 5621 5627 5635 5642 5649 5657 5666 5674 5683 5693 5700 5705 5711 5717 5722 5727 5731 5734 5735 5737 5737 5737 5736 5735 5734 5733 5730 5727 5723 5719 5718 5712 5708 5706 5704 5699 5694 5688
5591 5593 5594 5596 5597 5599 5601 5605 5608 5612 5617 5625 5633 5640 5648 5656 5665 5674 5683 5692 5698 5704 5710 5716 5721 5725 5728 5730 5731 5732 5732 5732 5732 5731 5730 5727 5723 5719 5717 5714 5711 5709 5706 5703 5698 5694 5690
5584 5586 5588 5589 5590 5593 5595 5598 5601 5605 5609 5617 5624 5631 5640 5648 5655 5665 5674 5684 5691 5697 5704 5710 5716 5720 5723 5725 5727 5728 5728 5728 5728 5728 5726 5724 5720 5717 5716 5712 5710 5707 5705 5702 5697 5695 5692
5578 5579 5581 5583 5584 5586 5588 5591 5595 5598 5602 5609 5617 5625 5633 5641 5650 5660 5669 5679 5686 5692 5698 5705 5711 5714 5718 5721 5723 5723 5724 5724 5724 5725 5723 5721 5718 5717 5714 5712 5710 5707 5704 5701 5697 5694 5691
5572 5574 5576 5577 5578 5580 5582 5585 5588 5592 5597 5603 5611 5619 5628 5636 5645 5655 5664 5673 5679 5686 5695 5701 5705 5709 5713 5717 5718 5720 5721 5721 5721 5722 5721 5719 5717 5716 5713 5711 5708 5706 5704 5700 5696 5692 5689
5567 5569 5570 5572 5573 5575 5577 5580 5583 5587 5592 5598 5606 5615 5625 5633 5641 5648 5659 5667 5675 5682 5690 5696 5700 5705 5710 5712 5715 5717 5718 5718 5718 5719 5719 5717 5716 5714 5710 5709 5707 5705 5701 5697 5693 5690 5685
5562 5564 5566 5567 5568 5570 5572 5575 5579 5583 5588 5595 5603 5612 5620 5629 5636 5645 5655 5662 5670 5679 5686 5692 5696 5701 5703 5708 5712 5714 5715 5716 5716 5717 5716 5715 5714 5711 5708 5707 5705 5701 5697 5693 5688 5686 5681
5557 5560 5562 5563 5565 5566 5568 5572 5575 5580 5585 5592 5600 5609 5617 5625 5633 5641 5650 5657 5666 5675 5682 5686 5692 5696 5700 5704 5708 5710 5713 5713 5714 5715 5714 5713 5711 5710 5706 5704 5702 5698 5692 5688 5683 5680 5674
5553 5556 5558 5560 5561 5563 5565 5568 5572 5577 5583 5590 5598 5606 5613 5623 5629 5637 5645 5654 5663 5671 5677 5683 5688 5693 5698 5702 5705 5708 5710 5711 5712 5712 5712 5711 5709 5707 5704 5701 5698 5694 5688 5683 5678 5676 5668
5548 5551 5554 5556 5558 5560 5563 5566 5570 5576 5582 5589 5597 5604 5613 5621 5627 5634 5643 5652 5660 5667 5674 5681 5686 5691 5695 5699 5703 5705 5707 5709 5710 5710 5710 5709 5707 5704 5701 5698 5695 5689 5683 5678 5673 5666 5661
5544 5547 5550 5553 5555 5557 5560 5564 5569 5574 5581 5588 5595 5602 5610 5618 5628 5632 5640 5649 5656 5665 5672 5677 5683 5688 5693 5697 5701 5703 5706 5707 5708 5708 5708 5707 5705 5702 5699 5694 5689 5683 5677 5672 5666 5659 5654